When you browse on this site, cookies collect data to enhance your experience and personalize the content and advertising you see.
Visit our Privacy Policy to learn more. By continuing to use the site, you agree to this use of cookies and data.
  • Em Portugal
  • Lista de países
  • Para 7 dias
  • Temperatura da água
  • Mapas de satélite
  • Mapa do tempo
  • Widgets de tempo
  • user-avatar
    Iniciar Sessão

    Previsão horária em Wicklow

    Hoje, 22 Janeiro, Terça-feira

    Tempo Temperatura Precipitação Vento Pressão Humidade
    00:00 -5°C° 0 mm 5 m/s 710 mmHg 86%
    01:00 -5°C° 0 mm 5 m/s 710 mmHg 85%
    02:00 -5°C° 0 mm 5 m/s 710 mmHg 85%
    03:00 -5°C° 0 mm 6 m/s 709 mmHg 84%
    04:00 -4°C° 0 mm 6 m/s 709 mmHg 85%
    05:00 -4°C° 0 mm 6 m/s 708 mmHg 86%
    06:00 -5°C° 0 mm 5 m/s 708 mmHg 88%
    07:00 -4°C° 0 mm 5 m/s 707 mmHg 88%
    08:00 -4°C° 0 mm 6 m/s 707 mmHg 89%
    09:00 -3°C° 0 mm 6 m/s 707 mmHg 89%
    10:00 -3°C° 0 mm 6 m/s 707 mmHg 84%
    11:00 -2°C° 0 mm 6 m/s 707 mmHg 79%
    12:00 -2°C° 0 mm 6 m/s 706 mmHg 74%
    13:00 -2°C° 0 mm 6 m/s 706 mmHg 75%
    14:00 -2°C° 0 mm 6 m/s 706 mmHg 75%
    15:00 -1°C° 0 mm 5 m/s 706 mmHg 76%
    16:00 -1°C° 0 mm 5 m/s 706 mmHg 80%
    17:00 -2°C° 0 mm 4 m/s 705 mmHg 84%
    18:00 -3°C° 0 mm 4 m/s 705 mmHg 89%
    19:00 -3°C° 0 mm 4 m/s 705 mmHg 90%
    20:00 -2°C° 0 mm 3 m/s 705 mmHg 91%
    21:00 -4°C° 0 mm 3 m/s 705 mmHg 92%
    22:00 -4°C° 0 mm 3 m/s 706 mmHg 92%
    23:00 -4°C° 0 mm 3 m/s 706 mmHg 93%

    Amanhã, 23 Janeiro, Quarta-feira

    Tempo Temperatura Precipitação Vento Pressão Humidade
    00:00 -4°C° 0 mm 3 m/s 706 mmHg 93%
    01:00 -4°C° 0 mm 3 m/s 706 mmHg 92%
    02:00 -4°C° 0 mm 3 m/s 707 mmHg 92%
    03:00 -4°C° 0 mm 4 m/s 707 mmHg 92%
    04:00 -4°C° 0 mm 3 m/s 707 mmHg 91%
    05:00 -4°C° 0 mm 3 m/s 707 mmHg 91%
    06:00 -4°C° 0 mm 3 m/s 708 mmHg 91%
    07:00 -4°C° 0 mm 3 m/s 708 mmHg 91%
    08:00 -4°C° 0 mm 3 m/s 708 mmHg 92%
    09:00 -4°C° 0 mm 3 m/s 709 mmHg 93%
    10:00 -2°C° 0 mm 3 m/s 709 mmHg 89%
    11:00 0°C° 0 mm 3 m/s 710 mmHg 85%
    12:00 +1°C° 0 mm 3 m/s 710 mmHg 81%
    13:00 +1°C° 0 mm 3 m/s 710 mmHg 81%
    14:00 +1°C° 0 mm 3 m/s 710 mmHg 82%
    15:00 +2°C° 0 mm 3 m/s 710 mmHg 83%
    16:00 +2°C° 0 mm 2 m/s 710 mmHg 87%
    17:00 +1°C° 0 mm 2 m/s 710 mmHg 91%
    18:00 +1°C° 0 mm 2 m/s 710 mmHg 95%
    19:00 +1°C° 0 mm 2 m/s 710 mmHg 96%
    20:00 +1°C° 0 mm 2 m/s 710 mmHg 96%
    21:00 +1°C° 0 mm 2 m/s 710 mmHg 97%
    22:00 +1°C° 0 mm 2 m/s 711 mmHg 97%
    23:00 +1°C° 0 mm 2 m/s 711 mmHg 97%

    Depois de amanhã, 24 Janeiro, Quinta-feira

    Tempo Temperatura Precipitação Vento Pressão Humidade
    00:00 +1°C° 0 mm 2 m/s 711 mmHg 97%
    01:00 +1°C° 0 mm 2 m/s 711 mmHg 97%
    02:00 +2°C° 0 mm 2 m/s 712 mmHg 97%
    03:00 +2°C° 0 mm 2 m/s 712 mmHg 96%
    04:00 +1°C° 0 mm 3 m/s 712 mmHg 96%
    05:00 +2°C° 0 mm 3 m/s 713 mmHg 96%
    06:00 +1°C° 0 mm 4 m/s 713 mmHg 96%
    07:00 +2°C° 0.1 mm 3 m/s 713 mmHg 96%
    08:00 +2°C° 0.1 mm 3 m/s 714 mmHg 96%
    09:00 +2°C° 0.1 mm 2 m/s 714 mmHg 95%
    10:00 +3°C° 0.1 mm 2 m/s 714 mmHg 95%
    11:00 +4°C° 0.1 mm 1 m/s 714 mmHg 95%
    12:00 +4°C° 0.1 mm 1 m/s 715 mmHg 95%
    13:00 +4°C° 0.1 mm 1 m/s 715 mmHg 95%
    14:00 +4°C° 0.1 mm 1 m/s 715 mmHg 95%
    15:00 +4°C° 0.1 mm 1 m/s 715 mmHg 95%
    16:00 +5°C° 0.3 mm 1 m/s 715 mmHg 96%
    17:00 +4°C° 0.3 mm 2 m/s 716 mmHg 96%
    18:00 +4°C° 0.3 mm 2 m/s 716 mmHg 96%
    19:00 +5°C° 0.4 mm 2 m/s 716 mmHg 96%
    20:00 +4°C° 0.4 mm 3 m/s 717 mmHg 96%
    21:00 +5°C° 0.4 mm 3 m/s 717 mmHg 97%
    22:00 +5°C° 0.1 mm 3 m/s 717 mmHg 97%
    23:00 +5°C° 0.1 mm 3 m/s 717 mmHg 97%

    25 Janeiro, Sexta-feira

    Tempo Temperatura Precipitação Vento Pressão Humidade
    00:00 +5°C° 0.1 mm 3 m/s 718 mmHg 97%
    01:00 +5°C° 0.1 mm 3 m/s 718 mmHg 97%
    02:00 +5°C° 0.1 mm 3 m/s 718 mmHg 97%
    03:00 +5°C° 0.1 mm 3 m/s 718 mmHg 97%
    04:00 +5°C° 0.1 mm 3 m/s 718 mmHg 97%
    05:00 +5°C° 0.1 mm 3 m/s 719 mmHg 96%
    06:00 +5°C° 0.1 mm 4 m/s 719 mmHg 96%
    07:00 +5°C° 0 mm 3 m/s 719 mmHg 96%
    08:00 +4°C° 0 mm 3 m/s 719 mmHg 97%
    09:00 +4°C° 0 mm 3 m/s 719 mmHg 97%
    10:00 +5°C° 0 mm 3 m/s 720 mmHg 94%
    11:00 +7°C° 0 mm 3 m/s 720 mmHg 92%
    12:00 +7°C° 0 mm 3 m/s 721 mmHg 89%
    13:00 +7°C° 0 mm 3 m/s 721 mmHg 88%
    14:00 +7°C° 0 mm 3 m/s 720 mmHg 87%
    15:00 +7°C° 0 mm 3 m/s 720 mmHg 86%
    16:00 +5°C° 0 mm 3 m/s 720 mmHg 89%
    17:00 +4°C° 0 mm 3 m/s 720 mmHg 91%
    18:00 +4°C° 0 mm 2 m/s 720 mmHg 94%
    19:00 +3°C° 0 mm 2 m/s 720 mmHg 94%
    20:00 +2°C° 0 mm 3 m/s 719 mmHg 94%
    21:00 +1°C° 0 mm 3 m/s 719 mmHg 94%
    22:00 +2°C° 0 mm 3 m/s 719 mmHg 93%
    23:00 +3°C° 0 mm 4 m/s 718 mmHg 92%

    26 Janeiro, Sábado

    Tempo Temperatura Precipitação Vento Pressão Humidade
    00:00 +4°C° 0 mm 4 m/s 718 mmHg 91%
    01:00 +4°C° 0.1 mm 4 m/s 717 mmHg 93%
    02:00 +4°C° 0.1 mm 4 m/s 717 mmHg 94%
    03:00 +3°C° 0.1 mm 5 m/s 716 mmHg 96%
    04:00 +3°C° 0.1 mm 6 m/s 715 mmHg 94%
    05:00 +4°C° 0.1 mm 7 m/s 713 mmHg 91%
    06:00 +4°C° 0.1 mm 8 m/s 712 mmHg 89%
    07:00 +4°C° 0.4 mm 8 m/s 710 mmHg 88%
    08:00 +2°C° 0.4 mm 8 m/s 709 mmHg 87%
    09:00 +2°C° 0.4 mm 8 m/s 707 mmHg 85%
    10:00 +2°C° 0.5 mm 10 m/s 708 mmHg 85%
    11:00 +2°C° 0.5 mm 11 m/s 708 mmHg 85%
    12:00 +2°C° 0.5 mm 12 m/s 708 mmHg 85%
    13:00 +1°C° 0.1 mm 11 m/s 709 mmHg 82%
    14:00 +1°C° 0.1 mm 11 m/s 711 mmHg 78%
    15:00 -1°C° 0.1 mm 11 m/s 712 mmHg 74%
    16:00 -2°C° 0 mm 10 m/s 713 mmHg 74%
    17:00 -3°C° 0 mm 9 m/s 713 mmHg 74%
    18:00 -3°C° 0 mm 9 m/s 714 mmHg 74%
    19:00 -2°C° 0 mm 8 m/s 715 mmHg 75%
    20:00 -2°C° 0 mm 8 m/s 715 mmHg 76%
    21:00 -2°C° 0 mm 7 m/s 715 mmHg 77%
    22:00 -3°C° 0 mm 7 m/s 716 mmHg 78%
    23:00 -3°C° 0 mm 7 m/s 716 mmHg 79%

    27 Janeiro, Domingo

    Tempo Temperatura Precipitação Vento Pressão Humidade
    00:00 -3°C° 0 mm 6 m/s 716 mmHg 80%
    01:00 -3°C° 0 mm 6 m/s 716 mmHg 82%
    02:00 -2°C° 0 mm 5 m/s 716 mmHg 83%
    03:00 -2°C° 0 mm 5 m/s 716 mmHg 84%
    04:00 -2°C° 0 mm 5 m/s 717 mmHg 85%
    05:00 -2°C° 0 mm 5 m/s 717 mmHg 86%
    06:00 -2°C° 0 mm 4 m/s 717 mmHg 87%
    07:00 -2°C° 0 mm 4 m/s 717 mmHg 89%
    08:00 -1°C° 0 mm 3 m/s 718 mmHg 90%
    09:00 -1°C° 0 mm 3 m/s 718 mmHg 92%
    10:00 0°C° 0 mm 3 m/s 718 mmHg 84%
    11:00 +1°C° 0 mm 3 m/s 719 mmHg 75%
    12:00 +1°C° 0 mm 3 m/s 719 mmHg 66%
    13:00 +1°C° 0 mm 3 m/s 719 mmHg 66%
    14:00 +1°C° 0 mm 3 m/s 719 mmHg 65%
    15:00 +1°C° 0 mm 3 m/s 719 mmHg 64%
    16:00 0°C° 0 mm 3 m/s 719 mmHg 70%
    17:00 -1°C° 0 mm 2 m/s 719 mmHg 76%
    18:00 -3°C° 0 mm 2 m/s 719 mmHg 82%
    19:00 -3°C° 0 mm 2 m/s 720 mmHg 84%
    20:00 -3°C° 0 mm 2 m/s 720 mmHg 85%
    21:00 -4°C° 0 mm 2 m/s 721 mmHg 87%
    22:00 -4°C° 0 mm 2 m/s 721 mmHg 87%
    23:00 -4°C° 0 mm 2 m/s 721 mmHg 88%
    Mostrar mais